Location: Chmeln�
(49.6483°N, 14.9871°E)
Time: 08:19:39
(UTC+00:00)

Cosmos 1300 Rocket - Pass Details

Date: 18 September 2020
Orbit: 601 x 627 km, 82.5° (Epoch: 24 October)

Event Time Altitude Azimuth Distance (km) Brightness Sun altitude
Rises 18:16:50 0° 174° (S) 2,877 6.8 -12.1°
Reaches altitude 10° 18:19:04 10° 169° (S) 1,981 5.9 -12.4°
Maximum altitude 18:23:19 51° 94° (E) 789 3.7 -13.1°
Drops below altitude 10° 18:27:38 10° 19° (NNE) 2,009 6.2 -13.8°
Sets 18:29:55 0° 15° (NNE) 2,923 7.1 -14.1°
